Regional Weather Roundup
Issued by NWS

Home | Current Version | Previous Version | Graphics & Text | Print | Product List | Glossary Off
Versions: 1 2 3 4 5 6 7 8 9 10 11 12 13 14 15 16 17 18 19 20 21 22 23 24 25 26 27 28 29 30 31 32 33 34 35 36 37 38 39 40 41 42 43 44 45 46 47 48 49 50

000
ASUS43 KLSX 271059
RWRMO

WEATHER SUMMARY FOR MISSOURI
NATIONAL WEATHER SERVICE SPRINGFIELD MO
500 AM CST SAT DEC 27 2014

NOTE: "FAIR" INDICATES FEW OR NO CLOUDS BELOW 12,000 FEET WITH NO
       SIGNIFICANT WEATHER AND/OR OBSTRUCTIONS TO VISIBILITY.
       CURRENT SKY AND/OR WEATHER CONDITIONS ARE NOT AVAILABLE FOR
       CHILLICOTHE AND FARMINGTON.

MOZ001>031-035>038-043-044-053-054-271200-
...NORTHERN AND WESTERN MISSOURI...

CITY           SKY/WX    TMP DP  RH WIND       PRES   REMARKS
KANSAS CTY INT CLOUDY    33  30  88 W13       30.10F WCI  24
KANSAS C DTWN  CLOUDY    36  29  75 W9        30.11F WCI  29
LEE`S SUMMIT   CLOUDY    35  29  78 NW16G23   30.08F WCI  25
ST JOSEPH      CLOUDY    33  29  85 NW10      30.12R WCI  25
CHILLICOTHE      N/A     37  31  78 W9        30.07S
KIRKSVILLE     CLOUDY    37  35  92 W18G26    30.02R WCI  27

$$
MOZ066>068-077>081-088>096-101>105-271200-
...SOUTHWEST MISSOURI...

CITY           SKY/WX    TMP DP  RH WIND       PRES   REMARKS
SPRINGFIELD    LGT RAIN  42  39  89 NW8G17    30.08R
JOPLIN         CLOUDY    36  33  89 NW12      30.15R WCI  28

$$
MOZ032>034-039>042-045>050-055>058-069>072-271200-
...CENTRAL MISSOURI...

CITY           SKY/WX    TMP DP  RH WIND       PRES   REMARKS
COLUMBIA       CLOUDY    43  41  93 NW16G26   30.04R
JEFFERSON CITY CLOUDY    46  43  89 NW5       30.04R
ROLLA          CLOUDY    48  47  96 S8        30.02F
SEDALIA        CLOUDY    39  35  86 NW14      30.09R
WARRENSBURG    CLOUDY    36  32  87 W14       30.10R WCI  27
OSAGE BEACH    CLOUDY    46  41  81 W7        30.05S

$$
MOZ051-052-059>065-271200-
...EAST CENTRAL MISSOURI...

CITY           SKY/WX    TMP DP  RH WIND       PRES   REMARKS
ST LOUIS INTL  CLOUDY    50  46  86 S6        30.06R
SPIRIT OF STL  CLOUDY    50  46  86 SW5       30.04S
ST CHARLES     CLOUDY    49  46  90 S10       30.05R

$$
MOZ072>076-082>087-097>100-106>115-271200-
...SOUTH CENTRAL AND SOUTHEAST MISSOURI...

CITY           SKY/WX    TMP DP  RH WIND       PRES   REMARKS
CAPE GIRARDEAU CLOUDY    46  45  96 SE5       30.12F FOG
FARMINGTON     CLOUDY    46  45  93 S5        30.10R
POPLAR BLUFF   CLOUDY    47  45  93 SE6       30.10S FOG
WEST PLAINS    FOG       48  47  96 S5        30.08R VSB 1

$$



USA.gov is the U.S. government's official web portal to all federal, state and local government web resources and services.